| time (UTC) | temp F | wind direction | speed MPH | gust MPH | rain 1hr in | rain 24hr in | rain mn in | humidity % | barometer mb |
| 20260505050535 | 39 | 360 | 1.0 | 8.0 | 0.00 | 0.00 | 0.00 | 70 | 1007.1 |
| 20260505041540 | 39 | 360 | 1.0 | 8.0 | 0.00 | 0.00 | 0.00 | 69 | 1006.8 |
| 20260505041022 | 40 | 360 | 2.0 | 5.0 | 0.00 | 0.00 | 0.00 | 69 | 1006.8 |
| 20260505040520 | 40 | 360 | 0.0 | 4.0 | 0.00 | 0.00 | 0.00 | 68 | 1006.8 |
| 20260505040020 | 40 | 360 | 1.0 | 8.0 | 0.00 | 0.00 | 0.00 | 68 | 1006.7 |
| 20260505035519 | 40 | 360 | 0.0 | 8.0 | 0.00 | 0.00 | 0.00 | 68 | 1006.7 |
| 20260505035018 | 40 | 360 | 2.0 | 5.0 | 0.00 | 0.00 | 0.00 | 68 | 1006.8 |
| 20260505034518 | 40 | 360 | 1.0 | 4.0 | 0.00 | 0.00 | 0.00 | 68 | 1006.7 |
| 20260505034020 | 40 | 360 | 0.0 | 6.0 | 0.00 | 0.00 | 0.00 | 67 | 1006.7 |
| 20260505033516 | 40 | 360 | 1.0 | 6.0 | 0.00 | 0.00 | 0.00 | 67 | 1006.5 |
| 20260505033015 | 40 | 360 | 1.0 | 6.0 | 0.00 | 0.00 | 0.00 | 68 | 1006.6 |
| 20260505032519 | 41 | 360 | 1.0 | 6.0 | 0.00 | 0.00 | 0.00 | 67 | 1006.5 |
| 20260505032014 | 41 | 360 | 2.0 | 6.0 | 0.00 | 0.00 | 0.00 | 67 | 1006.5 |
| 20260505031516 | 41 | 360 | 3.0 | 9.0 | 0.00 | 0.00 | 0.00 | 68 | 1006.4 |
| 20260505031012 | 41 | 360 | 4.0 | 9.0 | 0.00 | 0.00 | 0.00 | 67 | 1006.4 |
| 20260505030512 | 41 | 360 | 1.0 | 6.0 | 0.00 | 0.00 | 0.00 | 68 | 1006.3 |
| 20260505030011 | 41 | 360 | 0.0 | 3.0 | 0.00 | 0.00 | 0.00 | 68 | 1006.4 |
| 20260505025510 | 41 | 360 | 1.0 | 6.0 | 0.00 | 0.00 | 0.00 | 67 | 1006.3 |
| 20260505025008 | 41 | 360 | 2.0 | 6.0 | 0.00 | 0.00 | 0.00 | 67 | 1006.2 |
| 20260505024507 | 41 | 360 | 1.0 | 3.0 | 0.00 | 0.00 | 0.00 | 67 | 1006.2 |
| 20260505024007 | 41 | 360 | 1.0 | 6.0 | 0.00 | 0.00 | 0.00 | 67 | 1006.1 |
| 20260505023506 | 41 | 360 | 2.0 | 6.0 | 0.00 | 0.00 | 0.00 | 66 | 1006.0 |
| 20260505023004 | 41 | 360 | 2.0 | 6.0 | 0.00 | 0.00 | 0.00 | 66 | 1005.9 |
| 20260505022503 | 41 | 360 | 3.0 | 8.0 | 0.00 | 0.00 | 0.00 | 66 | 1005.8 |
| 20260505022003 | 41 | 360 | 2.0 | 11.0 | 0.00 | 0.00 | 0.00 | 65 | 1005.8 |
| 20260505021504 | 42 | 360 | 2.0 | 11.0 | 0.00 | 0.00 | 0.00 | 65 | 1005.6 |
| 20260505021100 | 42 | 360 | 3.0 | 6.0 | 0.00 | 0.00 | 0.00 | 66 | 1005.6 |
| 20260505020559 | 42 | 360 | 2.0 | 10.0 | 0.00 | 0.00 | 0.00 | 65 | 1005.5 |
| 20260505020059 | 42 | 360 | 3.0 | 10.0 | 0.00 | 0.00 | 0.00 | 64 | 1005.3 |
| 20260505015557 | 43 | 360 | 2.0 | 5.0 | 0.00 | 0.00 | 0.00 | 64 | 1005.3 |
| 20260505015056 | 43 | 360 | 2.0 | 9.0 | 0.00 | 0.00 | 0.00 | 63 | 1005.2 |
| 20260505014609 | 43 | 360 | 3.0 | 9.0 | 0.00 | 0.00 | 0.00 | 60 | 1005.1 |
| 20260505014053 | 43 | 360 | 2.0 | 6.0 | 0.00 | 0.00 | 0.00 | 57 | 1005.1 |
| 20260505013552 | 44 | 360 | 0.0 | 9.0 | 0.00 | 0.00 | 0.00 | 55 | 1005.1 |
| 20260505013053 | 44 | 360 | 3.0 | 9.0 | 0.00 | 0.00 | 0.00 | 53 | 1005.0 |
| 20260505012552 | 44 | 360 | 2.0 | 8.0 | 0.00 | 0.00 | 0.00 | 52 | 1004.9 |
| 20260505012051 | 44 | 360 | 2.0 | 8.0 | 0.00 | 0.00 | 0.00 | 51 | 1004.9 |
| 20260505011550 | 44 | 360 | 2.0 | 8.0 | 0.00 | 0.00 | 0.00 | 52 | 1004.8 |
| 20260505011049 | 45 | 360 | 2.0 | 6.0 | 0.00 | 0.00 | 0.00 | 53 | 1004.8 |
| 20260505010548 | 45 | 360 | 2.0 | 9.0 | 0.00 | 0.00 | 0.00 | 51 | 1004.7 |
| 20260505010048 | 45 | 360 | 3.0 | 10.0 | 0.00 | 0.00 | 0.00 | 49 | 1004.6 |
| 20260505005548 | 45 | 360 | 2.0 | 10.0 | 0.00 | 0.00 | 0.00 | 48 | 1004.6 |
| 20260505005047 | 45 | 360 | 2.0 | 10.0 | 0.00 | 0.00 | 0.00 | 48 | 1004.5 |
| 20260505004546 | 45 | 360 | 3.0 | 10.0 | 0.00 | 0.00 | 0.00 | 48 | 1004.5 |
| 20260505004045 | 45 | 360 | 1.0 | 10.0 | 0.00 | 0.00 | 0.00 | 49 | 1004.4 |
| 20260505003544 | 45 | 360 | 2.0 | 10.0 | 0.00 | 0.00 | 0.00 | 47 | 1004.3 |
| 20260505003044 | 46 | 360 | 4.0 | 11.0 | 0.00 | 0.00 | 0.00 | 47 | 1004.3 |
| 20260505002547 | 46 | 360 | 3.0 | 11.0 | 0.00 | 0.00 | 0.00 | 46 | 1004.3 |
| 20260505002044 | 46 | 360 | 2.0 | 14.0 | 0.00 | 0.00 | 0.00 | 46 | 1004.3 |
| 20260505001551 | 46 | 360 | 5.0 | 14.0 | 0.00 | 0.00 | 0.00 | 47 | 1004.2 |
| 20260505001042 | 46 | 360 | 2.0 | 9.0 | 0.00 | 0.00 | 0.00 | 47 | 1004.3 |
| 20260505000542 | 46 | 360 | 2.0 | 11.0 | 0.00 | 0.00 | 0.00 | 48 | 1004.2 |
| 20260505000053 | 46 | 360 | 5.0 | 11.0 | 0.00 | 0.00 | 0.00 | 47 | 1004.1 |
| 20260504235541 | 46 | 360 | 3.0 | 10.0 | 0.00 | 0.00 | 0.00 | 48 | 1004.0 |
| 20260504235041 | 46 | 360 | 4.0 | 10.0 | 0.00 | 0.00 | 0.00 | 48 | 1004.1 |
| 20260504234558 | 46 | 360 | 3.0 | 9.0 | 0.00 | 0.00 | 0.00 | 49 | 1004.1 |
| 20260504234040 | 46 | 360 | 3.0 | 11.0 | 0.00 | 0.00 | 0.00 | 49 | 1004.0 |
| 20260504233539 | 47 | 360 | 3.0 | 9.0 | 0.00 | 0.00 | 0.00 | 49 | 1004.0 |
| 20260504233040 | 47 | 360 | 3.0 | 13.0 | 0.00 | 0.00 | 0.00 | 48 | 1003.9 |
| 20260504232539 | 47 | 360 | 4.0 | 13.0 | 0.00 | 0.00 | 0.00 | 47 | 1003.9 |
| 20260504232038 | 47 | 360 | 2.0 | 16.0 | 0.00 | 0.00 | 0.00 | 48 | 1003.8 |
| 20260504231538 | 48 | 360 | 6.0 | 16.0 | 0.00 | 0.00 | 0.00 | 48 | 1003.9 |
| 20260504231038 | 48 | 360 | 4.0 | 14.0 | 0.00 | 0.00 | 0.00 | 49 | 1003.7 |
| 20260504230538 | 47 | 360 | 4.0 | 13.0 | 0.00 | 0.00 | 0.00 | 51 | 1003.6 |
| 20260504230038 | 47 | 360 | 5.0 | 13.0 | 0.00 | 0.00 | 0.00 | 50 | 1003.8 |
| 20260504225538 | 47 | 360 | 3.0 | 9.0 | 0.00 | 0.00 | 0.00 | 52 | 1003.7 |
| 20260504225035 | 47 | 360 | 3.0 | 15.0 | 0.00 | 0.00 | 0.00 | 52 | 1003.7 |
| 20260504224535 | 47 | 360 | 4.0 | 15.0 | 0.00 | 0.00 | 0.00 | 52 | 1003.6 |
| 20260504224035 | 47 | 360 | 5.0 | 14.0 | 0.00 | 0.00 | 0.00 | 51 | 1003.5 |
| 20260504223537 | 47 | 360 | 4.0 | 10.0 | 0.00 | 0.00 | 0.00 | 53 | 1003.5 |
| 20260504223042 | 47 | 360 | 5.0 | 10.0 | 0.00 | 0.00 | 0.00 | 53 | 1003.5 |
| 20260504222533 | 47 | 360 | 2.0 | 13.0 | 0.00 | 0.00 | 0.00 | 54 | 1003.3 |
| 20260504222033 | 47 | 360 | 3.0 | 9.0 | 0.00 | 0.00 | 0.00 | 53 | 1003.3 |
| 20260504221536 | 47 | 360 | 3.0 | 10.0 | 0.00 | 0.00 | 0.00 | 54 | 1003.3 |
| 20260504221033 | 47 | 360 | 4.0 | 11.0 | 0.00 | 0.00 | 0.00 | 53 | 1003.4 |
| 20260504220535 | 47 | 360 | 1.0 | 11.0 | 0.00 | 0.00 | 0.00 | 53 | 1003.3 |
| 20260504220032 | 47 | 360 | 3.0 | 12.0 | 0.00 | 0.00 | 0.00 | 53 | 1003.2 |
| 20260504215531 | 47 | 360 | 4.0 | 12.0 | 0.00 | 0.00 | 0.00 | 51 | 1003.2 |
| 20260504215031 | 48 | 360 | 4.0 | 12.0 | 0.00 | 0.00 | 0.00 | 50 | 1003.1 |
| 20260504214531 | 48 | 360 | 3.0 | 17.0 | 0.00 | 0.00 | 0.00 | 50 | 1003.0 |
| 20260504214031 | 48 | 360 | 2.0 | 19.0 | 0.00 | 0.00 | 0.00 | 50 | 1003.0 |
| 20260504213531 | 47 | 360 | 5.0 | 14.0 | 0.00 | 0.00 | 0.00 | 49 | 1003.0 |
| 20260504213053 | 47 | 360 | 4.0 | 11.0 | 0.00 | 0.00 | 0.00 | 49 | 1003.0 |
| 20260504212531 | 47 | 360 | 3.0 | 18.0 | 0.00 | 0.00 | 0.00 | 48 | 1003.0 |
| 20260504212032 | 48 | 360 | 6.0 | 18.0 | 0.00 | 0.00 | 0.00 | 49 | 1002.9 |
| 20260504211530 | 48 | 360 | 3.0 | 14.0 | 0.00 | 0.00 | 0.00 | 48 | 1002.9 |
| 20260504211030 | 49 | 344 | 4.0 | 11.0 | 0.00 | 0.00 | 0.00 | 49 | 1002.8 |
| 20260504210532 | 48 | 360 | 3.0 | 16.0 | 0.00 | 0.00 | 0.00 | 51 | 1002.8 |
| 20260504210030 | 48 | 360 | 3.0 | 13.0 | 0.00 | 0.00 | 0.00 | 47 | 1002.8 |
| 20260504205529 | 48 | 360 | 5.0 | 13.0 | 0.00 | 0.00 | 0.00 | 48 | 1002.8 |
| 20260504205028 | 47 | 360 | 3.0 | 12.0 | 0.00 | 0.00 | 0.00 | 50 | 1002.9 |
| 20260504204530 | 48 | 306 | 3.0 | 14.0 | 0.00 | 0.00 | 0.00 | 49 | 1002.8 |
| 20260504204028 | 48 | 360 | 5.0 | 14.0 | 0.00 | 0.00 | 0.00 | 50 | 1003.2 |
| 20260504203528 | 47 | 360 | 4.0 | 13.0 | 0.00 | 0.00 | 0.00 | 50 | 1002.9 |
| 20260504203031 | 47 | 360 | 3.0 | 13.0 | 0.00 | 0.00 | 0.00 | 55 | 1002.9 |
| 20260504202528 | 46 | 360 | 4.0 | 11.0 | 0.00 | 0.00 | 0.00 | 52 | 1002.9 |
| 20260504202027 | 46 | 360 | 3.0 | 11.0 | 0.00 | 0.00 | 0.00 | 53 | 1003.0 |
| 20260504201532 | 46 | 360 | 4.0 | 11.0 | 0.00 | 0.00 | 0.00 | 53 | 1002.9 |
| 20260504201027 | 46 | 360 | 5.0 | 11.0 | 0.00 | 0.00 | 0.00 | 52 | 1003.0 |
| 20260504200526 | 46 | 360 | 4.0 | 11.0 | 0.00 | 0.00 | 0.00 | 53 | 1002.9 |
| 20260504200027 | 46 | 360 | 3.0 | 11.0 | 0.00 | 0.00 | 0.00 | 56 | 1002.9 |
| 20260504195525 | 45 | 360 | 3.0 | 11.0 | 0.00 | 0.00 | 0.00 | 56 | 1003.0 |
| 20260504195025 | 45 | 360 | 2.0 | 18.0 | 0.00 | 0.00 | 0.00 | 58 | 1003.1 |
| 20260504194525 | 45 | 360 | 3.0 | 18.0 | 0.00 | 0.00 | 0.00 | 56 | 1002.9 |
| 20260504194025 | 46 | 360 | 5.0 | 11.0 | 0.00 | 0.00 | 0.00 | 53 | 1002.8 |
| 20260504193524 | 46 | 360 | 3.0 | 13.0 | 0.00 | 0.00 | 0.00 | 54 | 1002.8 |
| 20260504193024 | 46 | 360 | 4.0 | 11.0 | 0.00 | 0.00 | 0.00 | 54 | 1002.7 |
| 20260504192523 | 46 | 360 | 3.0 | 11.0 | 0.00 | 0.00 | 0.00 | 56 | 1002.7 |
| 20260504192024 | 46 | 360 | 3.0 | 13.0 | 0.00 | 0.00 | 0.00 | 56 | 1002.5 |
| 20260504191523 | 46 | 360 | 2.0 | 13.0 | 0.00 | 0.00 | 0.00 | 57 | 1002.6 |
| 20260504191022 | 46 | 360 | 3.0 | 13.0 | 0.00 | 0.00 | 0.00 | 56 | 1002.5 |
| 20260504190521 | 46 | 360 | 3.0 | 13.0 | 0.00 | 0.00 | 0.00 | 54 | 1002.4 |
| 20260504190020 | 47 | 360 | 4.0 | 13.0 | 0.00 | 0.00 | 0.00 | 56 | 1002.4 |
| 20260504185524 | 47 | 360 | 3.0 | 11.0 | 0.00 | 0.00 | 0.00 | 57 | 1002.2 |
| 20260504185019 | 47 | 360 | 5.0 | 11.0 | 0.00 | 0.00 | 0.00 | 56 | 1002.2 |
| 20260504184519 | 47 | 360 | 3.0 | 12.0 | 0.00 | 0.00 | 0.00 | 53 | 1002.0 |
| 20260504184017 | 47 | 360 | 3.0 | 12.0 | 0.00 | 0.00 | 0.00 | 52 | 1001.9 |
| 20260504183519 | 47 | 360 | 5.0 | 14.0 | 0.00 | 0.00 | 0.00 | 54 | 1002.1 |
| 20260504183022 | 46 | 360 | 4.0 | 14.0 | 0.00 | 0.00 | 0.00 | 56 | 1001.9 |
| 20260504182519 | 46 | 360 | 4.0 | 16.0 | 0.00 | 0.00 | 0.00 | 57 | 1002.0 |
| 20260504182020 | 46 | 360 | 6.0 | 16.0 | 0.00 | 0.00 | 0.00 | 56 | 1001.7 |
| 20260504181518 | 47 | 360 | 4.0 | 11.0 | 0.00 | 0.00 | 0.00 | 55 | 1001.7 |
| 20260504181016 | 46 | 360 | 4.0 | 12.0 | 0.00 | 0.00 | 0.00 | 55 | 1001.7 |
| 20260504180515 | 47 | 360 | 4.0 | 10.0 | 0.00 | 0.00 | 0.00 | 56 | 1001.6 |
| 20260504180015 | 47 | 360 | 3.0 | 10.0 | 0.00 | 0.00 | 0.00 | 56 | 1001.4 |
| 20260504175514 | 46 | 360 | 4.0 | 12.0 | 0.00 | 0.00 | 0.00 | 54 | 1001.4 |
| 20260504175018 | 46 | 360 | 3.0 | 12.0 | 0.00 | 0.00 | 0.00 | 54 | 1001.3 |
| 20260504174513 | 47 | 360 | 4.0 | 14.0 | 0.00 | 0.00 | 0.00 | 54 | 1001.2 |
| 20260504174014 | 47 | 360 | 4.0 | 14.0 | 0.00 | 0.00 | 0.00 | 53 | 1001.3 |
| 20260504173517 | 47 | 360 | 3.0 | 11.0 | 0.00 | 0.00 | 0.00 | 54 | 1001.3 |
| 20260504173023 | 47 | 360 | 5.0 | 15.0 | 0.00 | 0.00 | 0.00 | 56 | 1001.1 |
| 20260504172511 | 46 | 360 | 4.0 | 15.0 | 0.00 | 0.00 | 0.00 | 56 | 1001.1 |
| 20260504172011 | 47 | 360 | 6.0 | 11.0 | 0.00 | 0.00 | 0.00 | 58 | 1000.9 |
| 20260504171518 | 47 | 360 | 4.0 | 13.0 | 0.00 | 0.00 | 0.00 | 59 | 1000.9 |
| 20260504171011 | 47 | 360 | 3.0 | 13.0 | 0.00 | 0.00 | 0.00 | 60 | 1000.8 |
| 20260504170509 | 47 | 360 | 2.0 | 11.0 | 0.00 | 0.00 | 0.00 | 61 | 1000.8 |
| 20260504151002 | 46 | 360 | 2.0 | 10.0 | 0.00 | 0.00 | 0.00 | 66 | 999.7 |
| 20260504150501 | 46 | 360 | 3.0 | 13.0 | 0.00 | 0.00 | 0.00 | 65 | 999.7 |
| 20260504141158 | 45 | 360 | 3.0 | 8.0 | 0.00 | 0.00 | 0.00 | 70 | 999.1 |
| 20260504140556 | 44 | 360 | 4.0 | 9.0 | 0.00 | 0.00 | 0.00 | 72 | 999.1 |
| 20260504140108 | 44 | 360 | 3.0 | 10.0 | 0.00 | 0.00 | 0.00 | 72 | 999.1 |
| 20260504130550 | 44 | 360 | 3.0 | 10.0 | 0.00 | 0.00 | 0.00 | 72 | 998.2 |
| 20260504110522 | 48 | 360 | 8.0 | 12.0 | 0.00 | 0.00 | 0.00 | 73 | 996.0 |
| 20260504100510 | 48 | 360 | 3.0 | 5.0 | 0.00 | 0.00 | 0.00 | 71 | 995.1 |
| 20260504090120 | 49 | 360 | 0.0 | 5.0 | 0.00 | 0.00 | 0.00 | 70 | 995.0 |
| 20260504081554 | 51 | 360 | 3.0 | 11.0 | 0.00 | 0.00 | 0.00 | 66 | 995.2 |
| 20260504081049 | 52 | 360 | 4.0 | 11.0 | 0.00 | 0.00 | 0.00 | 65 | 995.0 |
| 20260504080551 | 52 | 360 | 4.0 | 11.0 | 0.00 | 0.00 | 0.00 | 64 | 995.0 |